Tracking 29892 objects as of 21-Nov-2024
HD Live streaming from Space Station
objects crossing your sky now

STARLINK-31978

Track STARLINK-31978 now!
10-day predictions
STARLINK-31978 is classified as:


NORAD ID: 60016
Int'l Code: 2024-111A
Perigee: 469.7 km
Apogee: 470.8 km
Inclination: 53.2 °
Period: 93.9 minutes
Semi major axis: 6841 km
RCS: Unknown
Launch date: June 8, 2024
Source: United States (US)
Launch site: AIR FORCE EASTERN TEST RANGE (AFETR)
Your satellite tracking list
Your tracking list is empty




NASA's NSSDC Master Catalog

Two Line Element Set (TLE):
1 60016U 24111A   24325.79741350 -.00027482  00000-0 -80884-3 0  9990
2 60016  53.1567 117.1562 0000773 140.5134 219.5925 15.34258750 26371
Source of the keplerian elements: AFSPC